Tracking 29892 objects as of 21-Nov-2024
HD Live streaming from Space Station
objects crossing your sky now

SL-12 R/B(2)

Track SL-12 R/B(2) now!


NORAD ID: 13900
Int'l Code: 1979-015D
Perigee: 35,453.0 km
Apogee: 35,539.6 km
Inclination: 5.8 °
Period: 1,420.9 minutes
Semi major axis: 41867 km
RCS: 2.2881 m2 (large)
Launch date: February 21, 1979
Source: Commonwealth of Independent States (former USSR) (CIS)
Launch site: TYURATAM MISSILE AND SPACE COMPLEX (TTMTR)

Note: This is a ROCKET BODY
Your satellite tracking list
Your tracking list is empty




NASA's NSSDC Master Catalog

Two Line Element Set (TLE):
1 13900U 79015D   24325.85544065 -.00000214  00000-0  00000+0 0  9995
2 13900   5.8242 284.2744 0010344 310.1910  75.0776  1.01342214121233
Source of the keplerian elements: AFSPC